Regional Weather Roundup
Issued by NWS Charleston, WV

Home | Current Version | Previous Version | Text Only | Print | Product List | Glossary Off
Versions: 1 2 3 4 5 6 7 8 9 10 11 12 13 14 15 16 17 18 19 20 21 22 23 24 25 26 27 28 29 30 31 32 33 34 35 36 37 38 39 40 41 42 43 44 45 46 47 48 49 50

000
ASUS41 KRLX 032110
RWRRLX
West Virginia Regional Weather Roundup
National Weather Service Charleston WV
500 PM EDT SUN MAY 03 2015

Note: "fair" indicates few or no clouds below 12,000 feet with no
significant weather and/or obstructions to visibility.

WVZ003-032200-
Northern Panhandle of West Virginia

CITY           SKY/WX    TMP DP  RH WIND       PRES   REMARKS
WHEELING       PTSUNNY   73  42  32 VRB7G18   30.10S
$$

WVZ009-032200-
Northwest West Virginia

CITY           SKY/WX    TMP DP  RH WIND       PRES   REMARKS
PARKERSBURG    SUNNY     77  38  24 VRB7      30.12F
$$

WVZ006-032200-
Western West Virginia

CITY           SKY/WX    TMP DP  RH WIND       PRES   REMARKS
HUNTINGTON     MOSUNNY   77  40  26 VRB5      30.09F
$$

WVZ015-032200-
West Central West Virginia

CITY           SKY/WX    TMP DP  RH WIND       PRES   REMARKS
CHARLESTON     MOSUNNY   80  37  21 N9        30.10F
$$

WVZ022-031-032200-
North Central West Virginia

CITY           SKY/WX    TMP DP  RH WIND       PRES   REMARKS
CLARKSBURG     MOSUNNY   76  40  27 W8        30.12F
MORGANTOWN     PTSUNNY   77  38  24 CALM      30.12F
$$

WVZ025-035-042-045-032200-
Southern West Virginia

CITY           SKY/WX    TMP DP  RH WIND       PRES   REMARKS
BECKLEY        SUNNY     73  32  22 VRB3      30.15F
LOGAN            N/A     73  37  27 VRB6      30.10S
BLUEFIELD      MOSUNNY   72  33  24 N5        30.17F
LEWISBURG      PTSUNNY   73  31  21 CALM      30.17S
$$

WVZ047-032200-
Northern Mountains of West Virginia

CITY           SKY/WX    TMP DP  RH WIND       PRES   REMARKS
ELKINS         PTSUNNY   71  36  27 NW7       30.14F
$$

WVZ052-032200-
Eastern Panhandle of West Virginia

CITY           SKY/WX    TMP DP  RH WIND       PRES   REMARKS
MARTINSBURG    CLOUDY    77  45  32 CALM      30.09F
PETERSBURG     MOSUNNY   77  32  19 CALM      30.11S
$$


USA.gov is the U.S. government's official web portal to all federal, state and local government web resources and services.